PSLV R/B, 41385

Orbit data source: Space-Track

PSLV R/B, 41385 is space debris in HEO originally from a launch on Thu, 10 Mar 2016 UTC launched from the Sirharikota (SRI). Debris objects in space refer to the collection of defunct objects orbiting the Earth. Examples of debris include non-operational satellites, rocket bodies, and fragments generated from explosions, collisions, or faulty payload assembly.

Loading next visibility...
Identifier
41385, 2016-015B
Orbit
HEO
Country
Flag of ININ / IND
Related business
Manufacturer
VSSC/LPSC
Mission
Spacecraft
Bus & Motor
PS-4, Unknown motor
Mass
920 kg wet, 920 kg dry
Launch date (UTC)
2016-03-10 (10 years ago)
Launch vehicle
Unknown
Launch site
Sirharikota (SRI)
Object type
Payload
Rocket body
Debris
Shape & HBR
Cyl + Cyl + 2 Nozzle, 1.5 m
Radar Cross Section
3.727 m², Large (>1 m²)

Expand to show TLE details & history
Last TLE update: 2 days ago

TLE from 2 days ago
0 PSLV R/B
1 41385U 16015B   26171.47347876  .00007936  00000-0  76718-3 0  9994
2 41385  17.7632 311.9804 5640098   1.0559 359.6983  4.62711189157192
Epoch: 2026-06-20T11:21Z
TLE epoch observation values (Epoch: 2026-06-20T11:21:48.564Z)
Latitude
-0.00005°
Longitude
-127.16034°
Altitude
253.912 km
Speed
9.695 km/s
True Right ascension
20h 47m 55s
True Declination
0° 00' 00"
Sunlit
Object was in full shadow at epoch
Visualization orbit readout
Latitude
Unknown
Longitude
Unknown
Altitude
Unknown
Speed
Unknown
Apparent Right ascension
Unknown
Apparent Declination
Unknown
Sunlit
N/A
Visualization observer readout
Local Sidereal Time
21:23:40
Azimuth
Unknown
Elevation
Unknown
Doppler factor
Unknown
Orbital elements
Apogee altitude
17,421 km
Perigee altitude
256.214 km
Semi-major axis
15,216.744 km
Eccentricity
0.56401
Inclination
17.7632°
RAAN
311.9804°
Arg. of periapsis
1.0559°
True anomaly
358.68945°
Mean anomaly
359.6983°
Eccentric anomaly
359.30803°
Mean motion
1.15627 °/min
Orbital period
311.35 mins
BSTAR
0.00076718
Loading maneuver chart data...
Computing Atmospheric mass density...
Loading historical data...
Loading historical data...
Loading historical data...
Loading historical data...
Loading historical data...
Loading historical data...
Loading historical data...
Other satellites on launch #15 in the year 2016 (2016-03-10 UTC)

Documentation

Showing up to 5 results
|